TEVEL-1

Last updated on Mon Aug 05 2024 00:02:58 GMT+0000 (Coordinated Universal Time)

1 51013U 22002AF 24217.41914616 .13912507 25389-5 43629-3 0 9991 2 51013 97.3507 296.7941 0014668 264.6720 95.2908 16.43535867142685
UTC large
Height (km)
Speed (km/s)
/
Latitude / Longitude
Inclination (degrees)
Orbital Period (minutes)
Azimuth
Elevation
Range (km)
Doppler Factor

Next 0 passes for location: London (51.5072 / 0.1276)

Sorry there are no passes over London.